2023/06/19 00:00:00,---,15.1
2023/06/19 00:10:00,14.8,15.0
2023/06/19 00:20:00,---,15.1
2023/06/19 00:30:00,158.7,15.2
2023/06/19 00:40:00, 0.0,15.1
2023/06/19 00:50:00, 0.0,14.7
2023/06/19 01:00:00,---,15.0
2023/06/19 01:10:00,---,15.0
2023/06/19 01:20:00,---,15.0
2023/06/19 01:30:00,---,14.8
2023/06/19 01:40:00,---,14.9
2023/06/19 01:50:00,---,14.9
2023/06/19 02:00:00,159.6,14.8
2023/06/19 02:10:00,159.6,14.6
2023/06/19 02:20:00,159.6,14.4
2023/06/19 02:30:00,---,14.2
2023/06/19 02:40:00,74.8,13.7
2023/06/19 02:50:00,65.5,14.0
2023/06/19 03:00:00, 0.0,13.9
2023/06/19 03:10:00,---,14.1
2023/06/19 03:20:00, 0.0,13.7
2023/06/19 03:30:00, 1.1,13.5
2023/06/19 03:40:00,---,13.8
2023/06/19 03:50:00, 0.0,13.8
2023/06/19 04:00:00,---,13.6
2023/06/19 04:10:00, 0.0,13.6
2023/06/19 04:20:00,---,13.5
2023/06/19 04:30:00,---,13.6
2023/06/19 04:40:00,---,13.8
2023/06/19 04:50:00,---,13.6
2023/06/19 05:00:00,---,13.5
2023/06/19 05:10:00,---,13.6
2023/06/19 05:20:00,---,13.6
2023/06/19 05:30:00,---,13.4
2023/06/19 05:40:00,---,13.7
2023/06/19 05:50:00,---,14.1
2023/06/19 06:00:00,---,14.1
2023/06/19 06:10:00,---,14.7
2023/06/19 06:20:00,---,15.1
2023/06/19 06:30:00,---,15.6
2023/06/19 06:40:00, 0.8,15.9
2023/06/19 06:50:00, 0.8,16.8
2023/06/19 07:00:00, 0.6,17.9
2023/06/19 07:10:00, 0.5,17.9
2023/06/19 07:20:00, 0.4,18.8
2023/06/19 07:30:00, 0.4,19.3
2023/06/19 07:40:00, 0.3,18.8
2023/06/19 07:50:00, 0.4,18.8
2023/06/19 08:00:00, 0.4,19.1
2023/06/19 08:10:00, 0.4,19.0
2023/06/19 08:20:00, 0.4,19.3
2023/06/19 08:30:00, 0.4,19.7
2023/06/19 08:40:00, 0.4,19.4
2023/06/19 08:50:00, 0.4,18.9
2023/06/19 09:00:00, 0.4,19.2
2023/06/19 09:10:00, 0.4,19.4
2023/06/19 09:20:00, 0.4,19.8
2023/06/19 09:30:00, 0.5,19.4
2023/06/19 09:40:00, 0.5,19.8
2023/06/19 09:50:00, 0.5,19.5
2023/06/19 10:00:00, 0.5,19.0
2023/06/19 10:10:00, 0.5,19.1
2023/06/19 10:20:00, 0.5,19.2
2023/06/19 10:30:00, 0.5,19.1
2023/06/19 10:40:00, 0.6,19.5
2023/06/19 10:50:00,---,19.6
2023/06/19 11:00:00, 0.6,19.9
2023/06/19 11:10:00, 0.4,19.7
2023/06/19 11:20:00, 0.4,20.0
2023/06/19 11:30:00, 0.4,22.0
2023/06/19 11:40:00, 0.3,21.5
2023/06/19 11:50:00, 0.2,23.0
2023/06/19 12:00:00, 0.4,23.0
2023/06/19 12:10:00, 0.1,23.0
2023/06/19 12:20:00,---,23.7
2023/06/19 12:30:00,---,24.9
2023/06/19 12:40:00, 0.0,24.9
2023/06/19 12:50:00, 0.0,24.4
2023/06/19 13:00:00, 0.0,24.5
2023/06/19 13:10:00, 0.0,25.9
2023/06/19 13:20:00, 0.0,25.8
2023/06/19 13:30:00, 0.0,27.3
2023/06/19 13:40:00, 0.0,27.3
2023/06/19 13:50:00,---,27.0
2023/06/19 14:00:00,---,26.0
2023/06/19 14:10:00,---,25.5
2023/06/19 14:20:00, 0.0,27.5
2023/06/19 14:30:00, 0.0,27.5
2023/06/19 14:40:00, 0.0,28.7
2023/06/19 14:50:00,---,28.2
2023/06/19 15:00:00,---,29.4
2023/06/19 15:10:00,---,29.4
2023/06/19 15:20:00, 0.0,30.0
2023/06/19 15:30:00, 0.0,30.5
2023/06/19 15:40:00,---,30.6
2023/06/19 15:50:00, 0.0,28.9
2023/06/19 16:00:00, 0.0,28.5
2023/06/19 16:10:00, 0.0,27.5
2023/06/19 16:20:00, 0.0,27.2
2023/06/19 16:30:00, 0.0,27.0
2023/06/19 16:40:00, 0.0,27.0
2023/06/19 16:50:00, 0.0,28.4
2023/06/19 17:00:00, 0.0,27.8
2023/06/19 17:10:00, 0.0,28.0
2023/06/19 17:20:00, 0.0,26.5
2023/06/19 17:30:00, 0.0,26.5
2023/06/19 17:40:00, 0.0,27.2
2023/06/19 17:50:00, 0.0,25.4
2023/06/19 18:00:00, 0.0,22.2
2023/06/19 18:10:00, 0.0,21.2
2023/06/19 18:20:00,---,21.0
2023/06/19 18:30:00, 0.0,20.6
2023/06/19 18:40:00, 0.0,20.1
2023/06/19 18:50:00, 0.0,19.8
2023/06/19 19:00:00, 0.0,18.1
2023/06/19 19:10:00, 0.0,17.8
2023/06/19 19:20:00, 0.0,17.6
2023/06/19 19:30:00, 0.0,17.2
2023/06/19 19:40:00, 0.0,17.0
2023/06/19 19:50:00, 0.0,16.5
2023/06/19 20:00:00, 0.0,16.3
2023/06/19 20:10:00, 0.0,16.1
2023/06/19 20:20:00, 0.3,15.9
2023/06/19 20:30:00, 0.3,15.6
2023/06/19 20:40:00, 0.3,15.6
2023/06/19 20:50:00,23.1,15.4
2023/06/19 21:00:00,23.1,15.1
2023/06/19 21:10:00,23.1,14.8
2023/06/19 21:20:00,23.1,14.9
2023/06/19 21:30:00,56.7,14.7
2023/06/19 21:40:00, 0.0,15.0
2023/06/19 21:50:00, 0.0,14.8
2023/06/19 22:00:00, 4.2,14.3
2023/06/19 22:10:00, 0.0,14.4
2023/06/19 22:20:00, 0.0,14.1
2023/06/19 22:30:00, 0.0,14.1
2023/06/19 22:40:00, 0.0,14.0
2023/06/19 22:50:00, 0.0,13.7
2023/06/19 23:00:00, 0.0,13.6
2023/06/19 23:10:00, 0.0,13.4
2023/06/19 23:20:00,---,13.6
2023/06/19 23:30:00, 0.0,13.3
2023/06/19 23:40:00, 0.0,13.0
2023/06/19 23:50:00, 0.0,12.8
